Regional Weather Roundup
Issued by NWS

Home | Current Version | Previous Version | Graphics & Text | Print | Product List | Glossary On
Versions: 1 2 3 4 5 6 7 8 9 10 11 12 13 14 15 16 17 18 19 20 21 22 23 24 25 26 27 28 29 30 31 32 33 34 35 36 37 38 39 40 41 42 43 44 45 46 47 48 49 50
000
ASUS43 KIND 281159
RWRIN

WEATHER ROUNDUP FOR INDIANA
NATIONAL WEATHER SERVICE INDIANAPOLIS IN
800 AM EDT FRI APR 28 2017

NOTE: "FAIR" INDICATES FEW OR NO CLOUDS BELOW 12,000 FEET WITH NO
SIGNIFICANT WEATHER AND/OR OBSTRUCTIONS TO VISIBILITY.

* - STATION DOES NOT REPORT WEATHER SUCH AS PRECIPITATION OR FOG.

+ - STATION NOT QUALITY CONTROLLED BY THE NATIONAL WEATHER SERVICE.
    USE DATA WITH CAUTION...ESPECIALLY DEWPOINT AND RELATIVE
    HUMIDITY OBSERVATIONS.

INZ001>003-010>013-019-020-281300-
NORTHWEST INDIANA

CITY           SKY/WX    TMP DP  RH WIND       PRES   REMARKS
GARY /AIRPORT/ MOSUNNY   45  43  93 CALM      29.95R
MONTICELLO +   CLOUDY    48  43  82 S6        29.97R
6HR MIN TEMP:  44; 6HR MAX TEMP:  48;

RENSSELAER +   MOSUNNY   46  43  87 S7        29.96R

$$

LMZ046-743>745-281300-
SOUTHERN LAKE MICHIGAN

STATION/POSITION TIME  TEMP    WIND        PRES    WAVE
                       AIR SEA DIR/SP/G            HT
                 (UTC) (F)     (DEG/KT/KT) (MB)    (FT)
BURNS HARBOR     1140   46        CALM     1014.6R
MICHIGAN CITY    1130   46     200/  1/  1   N/A
5NW MICH CITY    1150   45 46                N/A     1

$$

INZ004-005-014>016-021>024-281300-
NORTH CENTRAL INDIANA

CITY           SKY/WX    TMP DP  RH WIND       PRES   REMARKS
ELKHART        MOSUNNY   45  39  81 S6        29.95R
GOSHEN         MOSUNNY   47  39  74 S7        29.95R
6HR MIN TEMP:  43; 6HR MAX TEMP:  47;

SOUTH BEND     MOSUNNY   44  41  89 S6        29.96R
6HR MIN TEMP:  41; 6HR MAX TEMP:  44;


$$

INZ006>009-017-018-025>027-281300-
NORTHEAST INDIANA

CITY           SKY/WX    TMP DP  RH WIND       PRES   REMARKS
ANGOLA *+      SUNNY     45  41  87 S7        29.96R
FORT WAYNE     CLOUDY    47  42  83 S7        30.00R
6HR MIN TEMP:  43; 6HR MAX TEMP:  48;

KENDALLVILLE + MOSUNNY   46  40  82 S9        29.98R

$$

INZ028-029-035-036-043>045-051>053-281300-
WEST CENTRAL INDIANA

CITY           SKY/WX    TMP DP  RH WIND       PRES   REMARKS
CRAWFORDSVL +  CLOUDY    46  46 100 SE5       29.98S
6HR MIN TEMP:  40; 6HR MAX TEMP:  46;

GREENCASTLE +  CLOUDY    46  45  93 NE5       29.96F FOG
LAFAYETTE      CLOUDY    46  45  96 S3        29.97R
6HR MIN TEMP:  43; 6HR MAX TEMP:  47;

TERRE HAUTE    CLOUDY    49  45  86 S6        29.98R
6HR MIN TEMP:  44; 6HR MAX TEMP:  49;


$$

INZ030>032-037>040-046>048-054>057-064-065-281300-
CENTRAL INDIANA

CITY           SKY/WX    TMP DP  RH WIND       PRES   REMARKS
COLUMBUS       MOSUNNY   48  45  87 E12       29.96S
INDIANAPOLIS   CLOUDY    49  44  83 NE3       29.97R
6HR MIN TEMP:  45; 6HR MAX TEMP:  49;

-EAGLE CREEK   CLOUDY    49  44  83 CALM      29.98R
6HR MIN TEMP:  46; 6HR MAX TEMP:  49;

KOKOMO +       CLOUDY    47  44  90 S7        29.99R
6HR MIN TEMP:  45; 6HR MAX TEMP:  48;

SHELBYVILLE    PTSUNNY   51  43  74 VRB3      29.99R
6HR MIN TEMP:  44; 6HR MAX TEMP:  52;


$$

INZ033-034-041-042-049-050-058-059-281300-
EAST CENTRAL INDIANA

CITY           SKY/WX    TMP DP  RH WIND       PRES   REMARKS
MUNCIE         PTSUNNY   49  43  80 SE3       29.99R
6HR MIN TEMP:  43; 6HR MAX TEMP:  49;

RICHMOND +     CLOUDY    45  43  93 SE9       30.01R

$$

INZ060-061-067>069-081>083-085>088-281300-
SOUTHWEST INDIANA

CITY           SKY/WX    TMP DP  RH WIND       PRES   REMARKS
EVANSVILLE     CLOUDY    53  47  79 E7        29.93R
6HR MIN TEMP:  48; 6HR MAX TEMP:  53;

HUNTINGBURG *+ PTSUNNY   50  48  93 SE10      29.96R
6HR MIN TEMP:  46; 6HR MAX TEMP:  50;


$$

INZ062-063-066-070>080-084-089>092-281300-
SOUTH CENTRAL AND SOUTHEAST INDIANA

CITY           SKY/WX    TMP DP  RH WIND       PRES   REMARKS
BLOOMINGTON    CLOUDY    47  44  90 S3        29.99R
6HR MIN TEMP:  43; 6HR MAX TEMP:  48;

MADISON *+     CLOUDY    50  45  81 E5        30.03R
SEYMOUR +      CLOUDY    50  48  93 SE7       30.00R

$$





USA.gov is the U.S. government's official web portal to all federal, state and local government web resources and services.